Location: Azat
(46.0765°N, 1.7600°E)
Time: 10:33:16
(UTC+00:00)

ATLAS 2AS CENTAUR R/B - Pass Details

Date: 09 April 2020
Orbit: 931 x 1280 km, 63.7° (Epoch: 31 May)

Event Time Altitude Azimuth Distance (km) Brightness Sun altitude
Rises 19:56:10 0° 319° (NW) 4,164 7.2 -14.4°
Reaches altitude 10° 19:59:06 10° 315° (NW) 3,154 6.4 -14.8°
Maximum altitude 20:06:18 51° 242° (WSW) 1,412 3.5 -15.9°
Drops below altitude 10° 20:12:55 10° 169° (S) 2,894 4.6 -16.9°
Enters shadow 20:12:56 10° 169° (S) 2,898 4.6 -16.9°
